Location: Baili�vre
(50.0696°N, 4.2409°E)
Time: 03:29:29
(UTC+00:00)

Cosmos 968 Rocket - Pass Details

Date: 08 August 2020
Orbit: 740 x 772 km, 74.0° (Epoch: 25 September)

Event Time Altitude Azimuth Distance (km) Brightness Sun altitude
Exits shadow 22:58:59 33° 99° (E) 1,231 4.3 -23.2°
Drops below altitude 10° 23:03:24 10° 40° (NE) 2,266 6.4 -23.4°
Sets 23:05:57 0° 31° (NNE) 3,198 7.4 -23.5°
